GFSSW_con_sbcape_216.txt.gz
CAPE
1 0 0 0 0 0 0 0 0 0 0 0 0 0 0 0 0 0 0 5 274 1645 973 539 852 871 362 230 387 407 94 0 10 80 405 286 154 241 255 230 209 119 21 22 1
2 1 0 0 0 0 0 0 0 0 0 0 0 0 0 0 0 0 0 270 1385 1586 435 582 596 491 227 174 216 562 39 0 0 61 221 382 470 525 337 56 169 187 45 9 5
6 3 1 0 0 0 0 0 0 0 0 0 0 0 0 0 0 0 273 1191 1348 1175 319 315 292 273 135 94 101 162 32 29 23 51 189 435 480 424 500 461 348 378 167 51 24
3 5 3 1 0 0 0 0 0 0 0 0 0 0 0 0 0 83 1296 1532 1410 394 392 277 235 237 37 0 0 80 20 25 24 130 213 455 529 481 460 458 355 400 150 45 26
3 3 4 2 1 0 0 0 0 0 0 0 0 0 0 0 0 584 1650 1480 685 360 233 100 121 150 3 0 0 35 0 66 195 210 337 404 387 405 492 474 330 356 146 91 31
2 3 3 2 1 1 0 0 0 0 0 0 0 0 0 0 0 156 606 527 105 148 82 63 0 67 84 0 0 0 252 206 371 480 520 478 571 541 630 529 537 460 348 230 86
2 4 5 2 1 0 0 0 0 0 0 0 0 0 0 0 0 38 146 176 67 16 11 8 3 9 0 0 0 0 484 348 437 796 752 632 655 637 678 754 712 614 484 335 163
3 3 3 2 1 0 0 0 0 0 0 0 0 0 0 0 0 0 72 74 138 143 24 1 0 0 0 0 0 140 432 472 621 885 779 710 397 717 786 895 872 749 578 407 228
2 3 4 3 2 0 0 0 0 0 0 0 0 0 0 0 0 0 0 0 22 56 0 0 0 0 0 0 0 34 182 313 677 910 914 760 367 917 885 999 898 892 741 501 317
7 5 4 3 1 0 0 0 0 0 0 0 0 0 0 0 0 0 0 0 0 0 0 0 0 0 0 0 21 72 105 277 473 681 729 571 326 654 730 963 983 843 881 688 397
6 5 2 1 1 0 0 0 0 0 0 0 0 0 0 0 0 0 0 0 0 0 0 0 0 0 0 0 4 4 35 85 30 232 398 220 161 458 786 883 1018 938 881 851 605
5 5 3 3 0 0 0 0 0 0 0 0 0 0 0 0 0 0 0 0 0 0 0 0 0 0 0 0 0 0 0 9 0 0 7 3 8 63 581 737 790 964 872 805 741
5 5 4 2 0 0 0 0 0 0 0 0 0 0 0 0 0 0 0 0 0 0 0 0 0 0 0 0 0 0 3 26 4 0 0 0 0 5 26 433 607 710 963 803 773
6 8 5 1 0 0 0 0 0 0 0 0 0 0 0 0 0 0 0 0 0 0 0 0 0 0 0 0 0 11 0 0 0 0 1 0 39 21 179 328 415 719 881 978 790
6 9 8 3 0 0 0 0 0 0 0 0 0 0 0 0 0 0 0 0 0 0 0 0 0 0 0 0 0 0 12 0 0 0 2 0 0 1 0 16 351 635 812 895 996
5 8 3 0 0 0 0 0 0 0 0 0 0 0 0 0 0 0 0 0 0 0 0 0 0 0 0 0 0 0 0 0 0 1 19 7 3 2 5 23 62 467 681 829 946
3 2 0 0 0 0 0 0 0 0 0 0 0 0 0 0 0 0 0 0 0 0 0 0 0 0 0 0 0 0 0 19 13 7 1 22 14 6 0 0 0 28 160 462 756
0 0 0 0 0 0 0 0 0 0 0 0 0 0 0 0 0 0 0 0 0 0 0 0 0 0 0 0 0 0 0 27 35 19 3 1 0 0 0 0 0 0 0 0 358
0 0 0 0 0 0 0 0 0 0 0 0 0 0 0 0 0 0 0 0 0 0 0 0 0 0 0 0 0 0 0 4 34 39 18 8 0 0 0 0 0 0 158 106 59
0 0 0 0 0 0 0 0 0 0 0 0 0 0 0 0 0 0 0 0 0 0 0 0 0 0 0 0 0 0 0 0 0 23 17 1 0 0 0 0 0 0 3 33 489
0 0 0 0 0 0 0 0 0 0 0 0 0 0 0 0 0 0 0 0 0 0 0 0 0 0 0 0 0 0 0 0 0 0 6 3 0 0 0 0 0 0 0 19 569
0 0 0 0 0 0 0 0 0 0 0 0 0 0 0 0 0 0 0 0 0 0 0 0 0 0 0 0 0 0 0 0 0 0 0 1 0 0 0 0 0 0 0 59 272
0 0 0 0 0 1 0 0 0 0 0 0 0 0 0 0 0 0 0 0 0 0 0 0 0 0 0 0 0 0 0 0 0 0 0 0 0 0 0 0 0 0 0 0 111
0 2 0 0 0 0 0 4 0 0 0 0 0 0 0 0 0 0 0 0 0 0 0 0 0 0 0 0 0 0 0 0 0 0 0 0 0 0 0 0 0 0 0 26 2
0 0 0 18 12 1 0 0 3 5 0 0 0 0 0 0 0 0 0 0 0 0 0 0 1 0 0 0 0 0 0 0 0 0 0 0 0 0 0 0 0 11 29 168 105
9 8 4 11 4 8 1 21 23 34 4 7 1 1 0 0 0 0 0 0 0 0 0 0 0 0 0 0 0 0 0 0 0 0 0 0 0 0 0 0 127 496 703 837 857
0 2 5 2 7 8 25 11 28 30 3 1 0 2 2 0 0 0 0 0 0 0 0 0 0 0 3 0 0 0 0 0 0 0 0 0 3 584 411 528 811 958 1044 1090 1134

GFSSW_con_sbcape_222.txt.gz
CAPE
4 3 4 2 2 1 1 0 0 0 0 0 0 0 0 0 0 0 0 4 31 629 581 142 1082 741 381 396 366 408 39 26 179 328 383 452 303 52 283 294 237 285 0 0 0
3 3 3 2 1 3 2 1 0 0 0 0 0 0 0 0 0 0 0 1039 402 641 175 720 686 481 360 338 81 53 78 8 145 96 430 493 408 266 486 379 141 54 0 0 0
4 3 3 2 2 1 2 1 0 0 0 0 0 0 0 0 0 0 553 995 704 587 149 163 123 116 136 97 200 28 101 3 30 29 189 506 516 339 373 350 137 8 0 0 0
4 4 2 2 1 0 0 0 0 0 0 0 0 0 0 0 0 0 623 1122 895 129 374 198 47 47 101 26 182 51 10 0 0 287 350 417 650 535 281 245 181 23 0 0 0
3 2 1 1 1 0 0 0 0 0 0 0 0 0 0 0 0 29 679 1185 66 112 295 105 34 45 45 36 28 43 7 2 16 136 343 213 596 431 265 307 337 39 0 0 0
2 3 2 1 1 1 1 1 0 0 0 0 0 0 0 0 0 3 3 26 28 47 152 67 32 17 1 36 16 53 48 3 42 367 53 185 178 500 601 433 452 136 0 0 0
3 4 3 2 0 2 2 1 0 0 0 0 0 0 0 0 0 0 0 0 1 44 61 41 20 16 16 21 13 70 78 51 15 300 247 179 117 2 99 608 478 321 69 1 2
3 3 4 4 4 2 2 0 0 0 0 0 0 0 0 0 0 0 0 0 0 19 0 19 20 0 0 3 1 1 297 129 129 80 83 100 198 82 108 179 530 406 233 21 2
4 2 4 4 3 2 1 0 0 0 0 0 0 0 0 0 0 0 0 0 0 0 0 0 0 0 0 0 0 12 36 307 71 18 46 40 68 0 85 307 636 574 468 283 12
5 4 4 4 3 1 1 0 0 0 0 0 0 0 0 0 0 0 0 0 0 0 0 0 0 0 0 0 3 11 93 275 40 0 34 65 5 0 49 414 411 559 777 641 109
4 4 4 4 2 1 0 0 0 0 0 0 0 0 0 0 0 0 0 0 0 0 0 0 0 0 0 0 0 1 34 133 46 10 48 30 73 23 253 534 672 503 675 779 333
5 3 3 3 1 0 0 0 0 0 0 0 0 0 0 0 0 0 0 0 0 0 0 2 1 0 0 0 0 7 20 153 155 53 61 139 135 185 161 380 583 793 790 487 449
3 2 3 3 1 0 0 0 0 0 0 0 0 0 0 0 0 0 0 0 0 0 0 0 0 0 0 0 3 16 39 127 84 83 69 224 362 176 475 447 633 627 917 807 590
1 1 2 3 0 0 0 0 0 0 0 0 0 0 0 0 0 0 0 0 0 0 0 0 0 0 0 0 2 17 47 10 117 29 89 29 77 820 745 409 420 683 836 936 862
0 0 1 2 0 0 0 0 0 0 0 0 0 0 0 0 0 0 0 0 0 0 0 0 0 0 0 0 0 11 32 4 11 50 58 49 45 57 276 542 361 376 926 886 1073
0 0 1 0 0 0 0 0 0 0 0 0 0 0 0 0 0 0 0 0 0 0 0 0 0 0 0 3 0 3 11 32 40 63 81 66 80 113 297 317 461 413 703 930 1030
0 0 0 0 0 0 0 0 0 0 0 0 0 0 0 0 0 0 0 0 0 0 0 0 0 0 0 0 23 3 40 62 106 92 55 78 66 118 45 3 116 565 649 792 1265
0 0 0 0 0 0 0 0 0 0 0 0 0 0 0 0 0 0 0 0 0 0 0 0 0 0 0 0 4 32 49 91 88 87 62 34 38 124 88 53 164 342 461 719 641
0 0 0 0 0 0 0 0 0 0 1 0 0 0 0 0 0 0 0 0 0 0 0 0 0 0 0 0 1 1 113 33 69 113 100 59 47 99 151 18 20 214 505 302 537
0 0 0 0 0 0 0 0 0 6 0 0 0 0 0 0 0 0 0 0 0 0 0 0 0 0 0 0 0 0 4 50 83 123 52 61 96 12 166 116 99 30 39 136 83
0 71 0 0 0 0 0 0 28 3 0 0 0 0 0 0 11 6 0 0 0 0 0 0 0 0 0 0 0 0 5 25 77 124 85 105 99 89 65 0 73 66 148 25 20
98 218 17 0 0 0 79 26 0 0 0 0 0 0 0 0 2 8 3 1 7 0 0 0 0 0 0 0 0 0 9 16 83 90 69 110 76 34 11 6 87 94 167 0 0
271 81 11 0 10 15 9 115 7 0 0 0 0 0 0 0 0 24 49 21 0 0 3 0 0 0 0 0 0 0 3 0 2 71 213 201 23 0 0 0 24 70 35 117 85
206 222 109 57 45 17 13 19 20 42 0 0 0 3 0 0 0 18 47 12 0 2 74 0 0 0 0 0 0 7 0 0 0 15 124 29 18 276 27 11 2 41 172 128 396
241 54 2 76 12 5 0 9 54 182 125 109 9 0 4 3 1 28 95 11 0 0 0 0 0 0 0 0 1 4 0 0 0 0 16 33 10 45 15 160 48 170 266 572 979
0 0 0 92 0 0 33 245 218 205 181 182 136 40 66 38 129 181 109 163 0 6 0 0 0 0 0 0 0 0 11 0 0 0 0 1 7 1095 793 37 8 564 353 890 1383
0 0 19 5 20 0 9 0 5 19 88 269 34 58 90 43 19 33 39 17 65 119 33 16 4 88 11 3 3 1 0 2 0 1 18 40 961 1062 1164 1188 1744 1467 1303 1194 1083

GFSSW_con_sbcape_225.txt.gz
CAPE
3 2 2 2 1 1 1 1 0 0 0 0 0 0 0 0 0 0 0 3 46 891 519 63 126 526 801 355 353 216 194 29 12 355 331 240 41 0 134 4 0 0 0 0 0
5 3 2 2 1 1 1 1 1 0 0 0 0 0 0 0 0 0 0 535 616 795 106 95 373 839 983 280 187 57 106 11 46 227 266 240 62 160 263 162 0 0 0 0 0
4 3 2 2 1 0 1 0 0 0 0 0 0 0 0 0 0 0 943 1059 327 698 45 338 747 355 163 162 197 68 92 60 2 231 211 180 149 120 346 231 0 0 0 0 0
4 3 2 1 1 1 0 0 0 0 0 0 0 0 0 0 0 0 1101 856 561 230 0 31 231 26 15 80 177 60 63 6 57 231 218 367 185 193 154 179 0 0 0 0 0
3 2 2 2 2 1 0 0 0 1 0 0 0 0 0 0 0 20 1259 889 215 95 0 114 282 12 15 1 141 91 35 44 250 244 177 478 260 377 311 177 0 0 0 0 0
3 3 3 2 2 3 2 2 1 0 0 0 0 0 0 0 0 0 0 20 0 0 0 8 76 9 8 11 18 45 26 42 164 18 12 206 131 73 332 72 0 0 0 0 0
4 6 5 2 2 3 3 2 0 0 0 0 0 0 0 0 0 0 0 0 0 0 0 0 63 18 6 0 9 35 56 77 75 64 1 23 10 70 6 127 5 0 0 0 0
6 6 4 3 2 3 3 2 0 0 0 0 0 0 0 0 0 0 0 0 0 0 0 0 0 0 0 0 0 0 155 82 34 263 60 20 41 59 1 74 54 0 0 0 0
7 5 4 4 4 5 3 1 0 0 0 0 0 0 0 0 0 0 0 0 0 0 0 0 0 0 0 0 0 0 63 305 130 106 123 11 14 0 0 4 204 103 12 0 0
7 5 3 3 4 4 2 0 0 0 0 0 0 0 0 0 0 0 0 0 0 0 0 0 0 0 0 0 0 0 262 245 39 68 165 0 13 0 0 25 119 277 174 18 0
5 3 3 2 2 3 0 0 0 0 0 0 0 0 0 0 0 0 0 0 0 0 0 0 0 0 0 0 0 0 0 178 70 161 56 13 0 0 21 25 54 352 285 238 1
0 0 1 1 1 0 0 0 0 0 0 0 0 0 0 0 0 0 0 0 0 0 0 0 0 0 0 0 0 0 0 176 79 117 10 3 26 39 6 43 180 144 364 358 36
0 0 0 0 0 0 0 0 0 0 0 0 0 0 0 0 0 0 0 0 0 0 0 0 0 0 0 0 0 0 0 144 180 190 69 62 26 75 13 136 391 228 257 522 168
0 0 0 0 0 0 0 0 0 0 0 0 0 0 0 0 0 0 0 0 0 0 0 0 0 0 0 0 0 0 0 27 71 27 59 109 77 174 59 45 617 147 33 422 324
0 0 0 0 0 0 0 0 0 0 0 0 0 0 0 0 0 0 0 0 0 0 0 0 0 0 0 0 0 0 0 0 43 0 0 144 34 198 116 43 184 410 268 510 427
0 0 0 0 0 0 0 0 0 0 0 0 0 0 0 0 0 0 0 0 0 0 0 0 0 0 0 0 0 0 0 0 4 0 0 1 35 16 205 284 219 332 716 776 526
0 0 0 0 0 0 0 0 0 0 0 0 0 0 0 0 0 0 0 0 0 0 0 0 0 0 0 0 0 0 0 0 1 1 2 20 0 150 361 347 129 19 919 961 783
0 0 0 0 0 0 0 0 0 0 0 0 0 0 0 0 0 0 0 0 0 0 0 0 0 0 0 0 0 0 0 0 17 6 28 9 5 54 147 70 106 85 303 947 928
0 0 0 0 0 0 0 0 0 0 0 0 0 0 0 0 0 0 0 0 0 0 0 0 0 0 0 0 0 0 0 0 0 0 39 27 3 157 105 55 234 393 122 799 976
0 0 0 0 0 0 0 0 0 0 0 0 0 0 0 0 0 0 0 0 0 0 0 0 0 0 0 0 0 0 0 0 4 4 29 3 10 41 55 2 27 84 291 782 586
0 70 0 0 0 0 0 0 1 9 0 0 0 0 0 0 0 0 0 0 0 0 0 0 0 0 0 0 0 0 0 0 0 0 0 0 0 1 0 0 0 6 282 239 32
0 225 0 0 0 0 0 17 8 0 0 0 0 0 0 0 0 0 0 0 0 0 0 0 0 0 0 0 0 0 0 0 0 0 0 0 0 12 0 0 0 0 0 0 11
0 309 3 0 5 4 19 0 0 2 0 0 0 0 0 0 0 0 15 4 1 0 0 0 0 0 0 0 0 0 0 0 0 0 0 1 7 0 29 0 0 26 115 213 403
0 268 108 35 3 0 0 0 0 19 18 1 0 0 0 0 0 0 6 0 0 0 149 0 0 0 0 0 0 0 0 0 0 0 0 0 19 23 0 0 0 12 122 1161 1282
22 4 0 0 0 0 0 0 8 19 0 13 42 2 0 0 0 0 6 15 1 0 0 0 0 0 0 0 0 0 0 0 0 0 0 0 204 603 5 0 233 518 1274 1214 1201
0 0 0 0 7 0 0 0 0 0 0 20 26 0 5 0 0 0 0 0 11 0 0 0 0 0 0 0 0 0 0 0 0 0 0 26 947 802 925 1418 1146 1093 1035 964 929
0 0 0 0 7 0 0 0 0 0 0 0 0 0 0 0 0 0 0 0 0 8 1 0 2 1 0 1 0 0 0 0 0 343 408 541 975 733 957 1068 773 863 770 748 685

GFSSW_con_sbcape_228.txt.gz
CAPE
4 3 2 2 1 1 1 0 0 0 0 0 0 0 0 0 0 0 0 0 20 780 376 341 107 75 168 515 390 400 151 165 77 227 160 17 33 29 2 0 0 0 0 0 9
3 2 2 1 1 1 0 0 0 0 0 0 0 0 0 0 0 0 0 311 562 848 80 7 27 191 518 557 399 126 61 44 47 6 124 204 75 32 10 1 0 0 0 0 6
3 2 1 1 1 1 1 1 0 0 0 0 0 0 0 0 0 0 325 738 771 770 110 61 224 531 755 184 174 48 35 37 50 0 60 250 367 117 0 0 0 0 0 0 0
3 2 1 1 1 1 1 1 0 0 0 0 0 0 0 0 0 0 868 924 618 292 97 9 82 157 28 128 171 79 26 10 13 112 168 318 381 344 185 3 0 0 0 0 0
2 2 2 2 2 2 2 1 1 0 0 0 0 0 0 0 0 0 1101 810 130 133 58 12 93 143 61 12 167 91 38 29 31 149 168 183 154 111 196 0 0 0 0 0 0
2 2 1 1 2 3 2 3 2 0 0 0 0 0 0 0 0 0 1 133 0 0 0 17 44 63 33 5 42 98 79 17 32 77 73 311 185 19 197 46 0 0 0 0 0
4 4 4 1 1 2 3 2 1 0 0 0 0 0 0 0 0 0 0 0 0 0 0 1 26 38 1 0 1 54 119 186 88 101 45 66 95 199 30 12 13 0 0 0 0
1 4 4 3 2 2 3 1 0 0 0 0 0 0 0 0 0 0 0 0 0 0 0 0 0 2 0 0 0 23 31 21 225 97 54 82 59 18 9 120 68 0 0 0 0
3 3 4 3 4 3 3 2 0 0 0 0 0 0 0 0 0 0 0 0 0 0 0 0 0 0 0 0 0 0 2 46 67 168 89 45 73 0 15 49 3 0 0 0 0
0 0 0 1 1 1 2 0 0 0 0 0 0 0 0 0 0 0 0 0 0 0 0 0 0 0 0 0 0 7 153 107 83 196 57 16 0 2 0 0 0 29 0 0 0
0 0 0 0 0 0 0 0 0 0 0 0 0 0 0 0 0 0 0 0 0 0 0 0 0 0 0 0 0 0 0 72 58 211 32 6 2 1 0 0 0 78 0 0 0
0 0 0 0 0 0 0 0 0 0 0 0 0 0 0 0 0 0 0 0 0 0 0 0 0 0 0 0 0 0 1 66 125 143 23 9 2 0 0 37 18 126 258 14 0
0 0 0 0 0 0 0 0 0 0 0 0 0 0 0 0 0 0 0 0 0 0 0 0 0 0 0 0 0 0 0 23 84 151 77 39 2 5 12 39 264 225 257 193 0
1 0 0 0 0 0 0 0 0 0 0 0 0 0 0 0 0 0 0 0 0 0 0 0 0 0 0 0 0 0 0 7 145 55 23 42 9 64 4 4 85 154 238 76 116
1 0 0 0 0 0 0 0 0 0 0 0 0 0 0 0 0 0 0 0 0 0 0 0 0 0 0 0 0 0 0 3 156 51 16 74 23 0 53 8 7 32 204 40 78
0 0 2 0 0 0 0 0 0 0 0 0 0 0 0 0 0 0 0 0 0 0 0 0 0 0 0 0 0 0 0 0 22 10 0 0 7 0 63 15 33 1 44 177 118
0 0 2 0 0 0 0 0 0 0 0 0 0 0 0 0 0 0 0 0 0 0 0 0 0 0 0 0 0 0 0 0 1 7 0 0 0 0 17 50 85 95 45 87 221
0 0 0 0 0 0 0 0 0 0 0 0 0 0 0 0 0 0 0 0 0 0 0 0 0 0 0 0 0 0 0 0 0 0 0 0 0 0 0 63 173 159 141 245 268
0 0 0 0 0 0 0 0 0 0 0 0 0 0 0 0 0 0 0 0 0 0 0 0 0 0 0 0 0 0 0 0 0 0 0 0 0 13 44 52 57 171 191 452 501
0 0 0 0 0 0 0 0 0 0 0 0 0 0 0 0 0 0 0 0 0 0 0 0 0 0 0 0 0 0 0 0 0 0 0 0 0 42 71 31 111 27 159 670 833
0 10 0 0 0 0 0 0 0 0 0 0 0 0 0 0 0 0 0 0 0 0 0 0 0 0 0 0 0 0 0 0 0 0 0 0 0 0 33 0 44 117 11 29 446
0 136 0 0 0 0 0 0 0 0 0 0 0 0 0 0 0 0 0 0 0 0 0 0 0 0 0 0 0 0 0 0 0 0 0 0 0 0 14 0 0 78 88 267 349
0 0 2 0 0 0 0 0 0 0 0 0 0 0 0 0 0 0 0 0 0 0 0 0 0 0 0 0 0 0 0 0 0 0 0 0 0 0 0 130 436 637 840 942 853
0 0 0 0 0 0 0 0 0 0 0 0 0 0 0 0 0 0 0 0 0 0 60 0 0 0 0 0 0 0 0 0 0 0 0 0 0 23 4 20 302 967 821 674 629
0 0 0 0 0 0 0 0 0 0 0 0 0 0 0 0 0 0 0 0 0 0 0 0 0 0 0 0 0 0 0 0 0 0 0 0 0 468 3 536 790 855 744 565 426
0 0 0 0 0 0 0 0 0 0 0 0 0 0 0 0 0 0 0 0 0 0 0 0 0 0 0 0 0 0 0 0 2 0 178 610 1153 1117 1043 905 697 624 492 362 277
0 0 0 0 0 0 0 0 0 0 0 0 0 0 0 0 0 0 0 0 0 0 0 0 0 0 0 0 0 0 176 327 309 234 389 731 980 839 736 705 348 262 254 182 39